This is the latest recevied weather packets stored in our database for station/object JE4YKI-13. If no packets are shown the sender has not sent any weather packets the latest 1 day(s).
| Time | Temp. | Humidity | Pressure | Rain* | Wind** | Luminosity | Snow |
|---|---|---|---|---|---|---|---|
| 1777986616 | 15° C | 66% | 1019.4 hPa | 0 mm | 0 m/s | - | - |
| 1777986016 | 15° C | 66% | 1019.4 hPa | 0 mm | 0 m/s | - | - |
| 1777985415 | 15° C | 64% | 1019.3 hPa | 0 mm | 0 m/s | - | - |
| 1777984215 | 14.44° C | 63% | 1019.2 hPa | 0 mm | 0 m/s | - | - |
| 1777983614 | 15° C | 62% | 1019.1 hPa | 0 mm | 0 m/s | - | - |
| 1777983015 | 15° C | 62% | 1019.1 hPa | 0 mm | 0 m/s | - | - |
| 1777982413 | 15.56° C | 60% | 1019.1 hPa | 0 mm | 0 m/s | - | - |
| 1777981813 | 15.56° C | 59% | 1018.9 hPa | 0 mm | 0 m/s | - | - |
| 1777980612 | 14.44° C | 62% | 1018.7 hPa | 0 mm | 0 m/s | - | - |
| 1777980011 | 14.44° C | 64% | 1018.6 hPa | 0 mm | 0 m/s | - | - |
| 1777979411 | 13.89° C | 65% | 1018.5 hPa | 0 mm | 0 m/s | - | - |
| 1777978811 | 13.89° C | 64% | 1018.3 hPa | 0 mm | 0 m/s | - | - |
| 1777978209 | 14.44° C | 64% | 1018.1 hPa | 0 mm | 0 m/s | - | - |
| 1777977630 | 14.44° C | 63% | 1018.2 hPa | 0 mm | 0 m/s | - | - |
| 1777977008 | 15° C | 62% | 1018.1 hPa | 0 mm | 0 m/s | - | - |
| 1777976408 | 15.56° C | 60% | 1018.1 hPa | 0 mm | 0 m/s | - | - |
| 1777975808 | 16.11° C | 58% | 1018.1 hPa | 0 mm | 0 m/s | - | - |
| 1777975207 | 16.67° C | 56% | 1017.9 hPa | 0 mm | 0 m/s | - | - |
| 1777974607 | 16.67° C | 52% | 1017.9 hPa | 0 mm | 0 m/s | - | - |
| 1777974007 | 17.78° C | 49% | 1017.8 hPa | 0 mm | 0 m/s | - | - |
| 1777973406 | 17.78° C | 46% | 1017.6 hPa | 0 mm | 0 m/s | - | - |
| 1777972806 | 18.33° C | 43% | 1017.6 hPa | 0 mm | 0.45 m/s, 246° | - | - |
| 1777972205 | 18.89° C | 41% | 1017.5 hPa | 0 mm | 0 m/s | - | - |
| 1777971605 | 18.89° C | 41% | 1017.6 hPa | 0 mm | 0 m/s | - | - |
| 1777971005 | 18.89° C | 40% | 1017.4 hPa | 0 mm | 0 m/s | - | - |
* Rain latest hour (hover to see other rain measurements)
** Current wind speed in m/s (hover to see current wind gust speed)